Abilene, TX

8:44 PM CST on November 19, 2019 (GMT -0600)
Abilene Regional

Weather History for KABI - May, 2019

Change the Weather History Date:

Friday, May 17, 2019

  Actual Average Record
Temperature  
Mean Temperature 78 °F 73 °F  
Max Temperature 86 °F 85 °F 104 °F (2013)
Min Temperature 69 °F 62 °F 45 °F (1945)
Degree Days  
Heating Degree Days 0 0  
Month to date heating degree days 33 13  
Since 1 July heating degree days 2551 2555  
Cooling Degree Days 13 9  
Month to date cooling degree days 81 120  
Year to date cooling degree days 243 253  
Growing Degree Days 28 (Base 50)    
Moisture  
Dew Point 67 °F    
Average Humidity 73    
Maximum Humidity 90    
Minimum Humidity 55    
Precipitation  
Precipitation 0.00 in 0.10 in 2.29 in (1935)
Month to date precipitation 3.83 1.52  
Year to date precipitation 10.95 7.28  
Sea Level Pressure  
Sea Level Pressure 29.72 in    
Wind  
Wind Speed 18 mph (SSE)    
Max Wind Speed 26 mph    
Max Gust Speed 34 mph    
Visibility 10 miles    
Events      
T = Trace of Precipitation, MM = Missing Value Source: NWS Daily Summary

Daily Weather History Graph

Daily Weather History Graph

Search for Another Location

Airport or City:

Astronomy

May. 17, 2019 Rise Set
Actual Time 6:39 AM CDT 8:31 PM CDT
Civil Twilight 6:12 AM CDT 8:58 PM CDT
Nautical Twilight 5:39 AM CDT 9:31 PM CDT
Astronomical Twilight 5:04 AM CDT 10:06 PM CDT
Moon 7:28 PM CDT (5/17) 6:02 AM CDT (5/17)
Length of Visible Light 14h 46m
Length of Day
13h 51m
Waxing Gibbous, 98% of the Moon is Illuminated
May 17
Waxing Gibbous
May 18
Full
May 26
Last Quarter
Jun 3
New
Jun 10
First Quarter

Hourly Weather History & Observations

Time (CDT) Temp. Heat Index Dew Point Humidity Pressure Visibility Wind Dir Wind Speed Gust Speed Precip Events Conditions
12:52 AM 71.1 °F - 64.0 °F 78% 29.79 in 10.0 mi South 12.7 mph - N/A   Clear
1:52 AM 71.1 °F - 64.0 °F 78% 29.76 in 10.0 mi South 15.0 mph - N/A   Clear
2:52 AM 71.1 °F - 64.9 °F 81% 29.74 in 10.0 mi South 16.1 mph 25.3 mph N/A   Clear
3:52 AM 70.0 °F - 64.9 °F 84% 29.73 in 10.0 mi SSE 16.1 mph - N/A   Clear
4:52 AM 69.1 °F - 66.0 °F 90% 29.73 in 10.0 mi SSE 15.0 mph - N/A   Scattered Clouds
5:28 AM 69.1 °F - 66.0 °F 90% 29.79 in 10.0 mi South 19.6 mph 25.3 mph N/A   Mostly Cloudy
5:45 AM 70.0 °F - 66.0 °F 87% 29.79 in 10.0 mi South 21.9 mph 29.9 mph N/A   Overcast
5:52 AM 70.0 °F - 66.0 °F 87% 29.72 in 10.0 mi South 18.4 mph 26.5 mph N/A   Overcast
6:52 AM 70.0 °F - 66.0 °F 87% 29.73 in 10.0 mi SSE 16.1 mph 24.2 mph N/A   Overcast
7:14 AM 70.0 °F - 66.0 °F 87% 29.81 in 9.0 mi SSE 13.8 mph 23.0 mph N/A   Overcast
7:52 AM 70.0 °F - 66.0 °F 87% 29.77 in 9.0 mi South 15.0 mph - N/A   Overcast
8:10 AM 71.6 °F - 66.2 °F 83% 29.84 in 9.0 mi SSE 16.1 mph - N/A   Overcast
8:52 AM 72.0 °F - 66.9 °F 84% 29.76 in 9.0 mi SSE 18.4 mph - N/A   Mostly Cloudy
9:52 AM 75.0 °F - 68.0 °F 79% 29.75 in 10.0 mi South 19.6 mph 27.6 mph N/A   Mostly Cloudy
10:52 AM 77.0 °F - 68.0 °F 74% 29.75 in 10.0 mi South 20.7 mph 27.6 mph N/A   Overcast
11:41 AM 79.0 °F - 68.0 °F 69% 29.81 in 10.0 mi South 20.7 mph 29.9 mph N/A   Overcast
11:52 AM 79.0 °F - 68.0 °F 69% 29.74 in 10.0 mi South 20.7 mph 28.8 mph N/A   Overcast
12:02 PM 78.1 °F - 68.0 °F 71% 29.81 in 10.0 mi South 18.4 mph 27.6 mph N/A   Overcast
12:52 PM 82.0 °F 85.9 °F 70.0 °F 67% 29.72 in 10.0 mi South 18.4 mph 25.3 mph N/A   Overcast
1:52 PM 82.9 °F 86.5 °F 69.1 °F 63% 29.69 in 10.0 mi South 19.6 mph 25.3 mph N/A   Partly Cloudy
2:52 PM 82.9 °F 85.8 °F 68.0 °F 60% 29.68 in 10.0 mi South 17.3 mph - N/A   Mostly Cloudy
3:52 PM 84.0 °F 87.0 °F 68.0 °F 58% 29.65 in 10.0 mi South 20.7 mph 26.5 mph N/A   Scattered Clouds
4:52 PM 86.0 °F 89.4 °F 68.0 °F 55% 29.63 in 10.0 mi South 20.7 mph 29.9 mph N/A   Scattered Clouds
5:52 PM 82.9 °F 85.8 °F 68.0 °F 60% 29.63 in 10.0 mi South 15.0 mph 26.5 mph N/A   Scattered Clouds
6:52 PM 82.0 °F 84.5 °F 66.9 °F 60% 29.62 in 9.0 mi South 17.3 mph - N/A   Clear
7:52 PM 80.1 °F 82.7 °F 68.0 °F 67% 29.62 in 10.0 mi SSE 9.2 mph - N/A   Clear
8:52 PM 78.1 °F - 69.1 °F 74% 29.65 in 10.0 mi SSE 10.4 mph - N/A   Clear
9:52 PM 78.1 °F - 68.0 °F 71% 29.62 in 10.0 mi SSE 17.3 mph - N/A   Clear
10:52 PM 77.0 °F - 69.1 °F 76% 29.62 in 10.0 mi SSE 20.7 mph 27.6 mph N/A   Clear
11:52 PM 75.9 °F - 70.0 °F 82% 29.62 in 10.0 mi SSE 21.9 mph 28.8 mph N/A   Clear